Regional Weather Roundup
Issued by NWS

Home | Current Version | Previous Version | Text Only | Print | Product List | Glossary On
Versions: 1 2 3 4 5 6 7 8 9 10 11 12 13 14 15 16 17 18 19 20 21 22 23 24 25 26 27 28 29 30 31 32 33 34 35 36 37 38 39 40 41 42 43 44 45 46 47 48 49 50
000
ASUS43 KDTX 032301
RWRMI
MICHIGAN HOURLY REGIONAL WEATHER ROUNDUP
NATIONAL WEATHER SERVICE DETROIT/PONTIAC MI
600 PM EST TUE MAR 03 2015

NOTE: "FAIR" INDICATES FEW OR NO CLOUDS BELOW 12,000 FEET WITH NO
SIGNIFICANT WEATHER AND/OR OBSTRUCTION TO VISIBILITY.

MIZ047>049-052>055-059>063-066>070-074>076-081>083-040000-
SOUTHEAST LOWER MICHIGAN

CITY           SKY/WX    TMP DP  RH WIND       PRES   REMARKS
ADRIAN         CLOUDY    36  34  92 W16G23    29.63R WCI  26
ALMA           CLOUDY    32  31  95 W14G21    29.56R WCI  22
ANN ARBOR      CLOUDY    34  33  96 W14       29.59R FOG     WCI  25
BAD AXE        CLOUDY    30  29  99 SW10G16   29.52S FOG     WCI  21
CARO           CLOUDY    31  30  95 SW9       29.52F FOG     WCI  23
DETROIT CITY   CLOUDY    36  32  85 SW15      29.58F FOG     WCI  27
DETROIT        CLOUDY    35  32  88 SW15      29.59F FOG     WCI  25
FLINT          CLOUDY    35  30  82 W14       29.56R WCI  26
GROSSE ILE     CLOUDY    36  34  93 SW13G20   29.59R FOG     WCI  27
HILLSDALE      CLOUDY    36  36  99 W17G29    29.60R WCI  26
HOWELL         CLOUDY    33  32  95 W18G31    29.56R WCI  22

CITY           SKY/WX    TMP DP  RH WIND       PRES   REMARKS
JACKSON        CLOUDY    35  31  85 W21G31    29.59R WCI  24
LAMBERTVILLE   CLOUDY    37  34  87 SW9G24    29.62S FOG     WCI  31
LANSING        CLOUDY    34  29  82 W24G36    29.58R WCI  21
LAPEER         CLOUDY    32  30  92 W10G18    29.55R WCI  24
MASON          CLOUDY    34  31  89 W17G31    29.57R WCI  23
MONROE         CLOUDY    36  34  93 SW18G24   29.59S FOG     WCI  25
MT. CLEMENS    CLOUDY    33  32  96 SW9       29.55S FOG     WCI  25
PONTIAC        CLOUDY    33  31  92 SW14      29.55R FOG     WCI  23
PORT HOPE        N/A     29  26  89 VRB3      29.51S
PORT HURON     CLOUDY    30  28  93 SW6       29.56S FOG     WCI  24
TRI CITIES     CLOUDY    33  29  85 SW14      29.54S FOG     WCI  23
TROY           CLOUDY    34  32  91 SW7       29.58R FOG     WCI  28
SAGINAW HB     CLOUDY    32  32 100 SW13      29.54S FOG     WCI  22
$$
MIZ043>046-050>051-056>058-064>065-071>073-077>080-040000-
SOUTHWEST LOWER MICHIGAN

CITY           SKY/WX    TMP DP  RH WIND       PRES   REMARKS
BATTLE CREEK   CLOUDY    35  30  82 W17G29    29.62R WCI  25
BENTON HARBOR  CLOUDY    33  31  92 W15       29.68R WCI  23
BIG RAPIDS     CLOUDY    31  29  94 W13G21    29.53R WCI  21
COLDWATER      CLOUDY    35  32  90 W20G29    29.63R WCI  24
FREMONT        CLOUDY    31  28  90 W15G22    29.58R WCI  20
HOLLAND        CLOUDY    34  30  85 W16G24    29.64R WCI  24
GRAND RAPIDS   CLOUDY    33  28  81 W20G28    29.60R WCI  21
IONIA          CLOUDY    33  31  90 W22G29    29.58R WCI  21
KALAMAZOO      CLOUDY    35  29  78 W20G26    29.65R WCI  24
LUDINGTON      CLOUDY    31  25  80 W14G21    29.59R WCI  20
MARSHALL       CLOUDY    33  31  91 W21G31    29.60R WCI  21
MOUNT PLEASANT CLOUDY    30  29  96 W7        29.53R FOG     WCI  23
MUSKEGON       CLOUDY    33  28  81 W17G26    29.62R WCI  22
SOUTH HAVEN    CLOUDY    34  32  92 W13G18    29.67R WCI  25
$$
MIZ016>042-040000-
NORTHERN LOWER MICHIGAN

CITY           SKY/WX    TMP DP  RH WIND       PRES   REMARKS
ALPENA         CLOUDY    25  23  92 SW6       29.50F FOG     WCI  18
BEAVER ISLAND  LGT SNOW  26  23  90 SW7       29.48F WCI  18
BELLAIRE       LGT SNOW  27  25  94 CALM      29.51S
CADILLAC       LGT SNOW  27  26  93 W12       29.48F WCI  17
CHARLEVOIX     FLURRIES  26  24  93 SW6       29.52S WCI  19
FRANKFORT      CLOUDY    29  25  86 W15G21    29.54R WCI  18
GAYLORD        CLOUDY    23  23 100 SW12      29.46S FOG     WCI  12
GRAYLING       LGT SNOW  26  25  98 SW3       29.49S
HARBOR SPRINGS CLOUDY    25  23  91 CALM      29.49S
HOUGHTON LAKE  CLOUDY    25  23  92 SW6       29.48F FOG     WCI  18
MANISTEE       CLOUDY    28  21  74 W17       29.57R WCI  16
OSCODA         CLOUDY    26  24  96 SW7       29.51F FOG     WCI  18
PELLSTON       CLOUDY    26  21  81 SW3       29.50S
ROGERS CITY    MIX PCPN  24  23  96 SW7       29.50S WCI  16
TRAVERSE CITY  FLURRIES  29  25  85 W9        29.50S WCI  20
$$
MIZ007>008-015-040000-
EASTERN UPPER MICHIGAN

CITY           SKY/WX    TMP DP  RH WIND       PRES   REMARKS
KINROSS        CLOUDY    25  23  93 S5        29.48S WCI  19
MACKINAC ISLAN LGT SNOW  24  22  93 CALM      29.49S
NEWBERRY       LGT SNOW  22  20  92 S8        29.46F WCI  12
S. S. MARIE    LGT SNOW  23  20  88 S3        29.48F FOG
MUNISING         N/A     23  19  85 CALM      29.48S
$$
MIZ004>006-011>014-085-040000-
CENTRAL UPPER MICHIGAN

CITY           SKY/WX    TMP DP  RH WIND       PRES   REMARKS
MANISTIQUE     LGT SNOW  24  23  97 CALM      29.47F
ESCANABA       PTCLDY    28  19  69 W9        29.51S WCI  20
MENOMINEE      CLOUDY    28  18  64 W8        29.53R WCI  20
SAWYER-GWINN   LGT SNOW  25  19  80 W8        29.46S WCI  16
$$
MIZ001>003-009>011-084-040000-
WESTERN UPPER MICHIGAN

CITY           SKY/WX    TMP DP  RH WIND       PRES   REMARKS
IRON MOUNTAIN  CLOUDY    27  17  66 W13       29.48S WCI  16
HOUGHTON       LGT SNOW  24  19  81 W21G31    29.45S WCI   9
COPPER HARBOR    N/A     26  19  74 NW9G17    29.44F WCI  17
IRONWOOD       CLOUDY    25  21  86 W18G26    29.53R WCI  11
$$

ABBREVIATIONS USED IN REMARKS
   TC - TEMPERATURE IN CELSIUS
  WCI - WIND CHILL INDEX
   HX - HEAT INDEX
  VSB - VISIBILITY



USA.gov is the U.S. government's official web portal to all federal, state and local government web resources and services.